CW2856 Weather Reports


time (UTC)temp
C
wind
direction
speed
KPH
gust
KPH
rain 1hr
cm
rain 24hr
cm
rain mn
cm
humidity
%
barometer
mb
20260906181823 35 170 9.7 19.3 0.00 0.00 0.00 44 1011.4
20260906180323 36 203 9.7 12.9 0.00 0.00 0.00 46 1011.5
20260906174826 37 152 6.4 19.3 0.00 0.00 0.00 39 1011.8
20260906173352 37 79 11.3 19.3 0.00 0.00 0.00 39 1012.0
20260906171813 38 68 9.7 17.7 0.00 0.00 0.00 38 1012.3
20260906170318 38 59 14.5 20.9 0.00 0.00 0.00 40 1012.6
20260906164820 37 190 8.0 20.9 0.00 0.00 0.00 41 1012.6
20260906163343 37 115 3.2 9.7 0.00 0.00 0.00 42 1012.8
20260906161830 37 232 6.4 11.3 0.00 0.00 0.00 45 1012.7
20260906160313 36 60 9.7 14.5 0.00 0.00 0.00 45 1012.9
20260906154817 36 80 8.0 14.5 0.00 0.00 0.00 46 1012.9
20260906153319 35 248 1.6 4.8 0.00 0.00 0.00 52 1012.8
20260906151822 33 247 3.2 8.0 0.00 0.00 0.00 54 1012.8
20260906150321 33 275 3.2 6.4 0.00 0.00 0.00 56 1012.7
20260906144823 32 209 1.6 4.8 0.00 0.00 0.00 58 1012.7
20260906143317 32 165 4.8 4.8 0.00 0.00 0.00 60 1012.8
20260906141819 31 165 3.2 4.8 0.00 0.00 0.00 64 1012.8
20260906140325 30 166 4.8 4.8 0.00 0.00 0.00 67 1012.8
20260906134828 28 174 4.8 8.0 0.00 0.00 0.00 71 1012.5
20260906133314 27 88 3.2 6.4 0.00 0.00 0.00 78 1012.5
20260906131817 26 24 0.0 3.2 0.00 0.00 0.00 84 1012.5
20260906130318 24 24 0.0 1.6 0.00 0.00 0.00 87 1012.4
20260906124822 23 24 0.0 0.0 0.00 0.00 0.00 89 1012.1
20260906123324 22 24 0.0 0.0 0.00 0.00 0.00 89 1011.9
20260906121851 22 24 0.0 1.6 0.00 0.00 0.00 88 1011.9
20260906120332 22 24 1.6 3.2 0.00 0.00 0.00 89 1011.7
20260906114832 21 24 1.6 1.6 0.00 0.00 0.00 88 1011.5
20260906113317 21 24 1.6 8.0 0.00 0.00 0.00 86 1011.4
20260906111821 22 9 0.0 0.0 0.00 0.00 0.00 87 1011.5
20260906110326 22 9 0.0 0.0 0.00 0.00 0.00 86 1011.4
20260906104827 22 9 0.0 0.0 0.00 0.00 0.00 86 1011.4
20260906103328 22 9 0.0 0.0 0.00 0.00 0.00 86 1011.3
20260906101816 22 9 0.0 0.0 0.00 0.00 0.00 85 1011.4
20260906100317 23 9 1.6 3.2 0.00 0.00 0.00 85 1011.2
20260906094822 23 9 0.0 0.0 0.00 0.00 0.00 85 1011.1
20260906093323 23 9 0.0 0.0 0.00 0.00 0.00 84 1011.1
20260906091827 23 9 0.0 0.0 0.00 0.00 0.00 83 1011.0
20260906090331 23 9 0.0 1.6 0.00 0.00 0.00 83 1011.0
20260906084832 23 9 0.0 1.6 0.00 0.00 0.00 82 1011.0
20260906083353 23 9 1.6 3.2 0.00 0.00 0.00 83 1010.9
20260906081819 23 9 0.0 4.8 0.00 0.00 0.00 82 1010.8
20260906080321 24 9 0.0 6.4 0.00 0.00 0.00 81 1011.0
20260906074827 24 19 3.2 4.8 0.00 0.00 0.00 81 1010.8
20260906073348 24 19 0.0 1.6 0.00 0.00 0.00 82 1010.8
20260906071850 24 19 0.0 0.0 0.00 0.00 0.00 83 1010.8
20260906070314 24 19 0.0 1.6 0.00 0.00 0.00 83 1010.9
20260906064815 24 19 0.0 0.0 0.00 0.00 0.00 81 1011.0
20260906063317 25 19 0.0 0.0 0.00 0.00 0.00 82 1011.1
20260906061825 25 19 0.0 0.0 0.00 0.00 0.00 81 1011.0
20260906060326 25 19 0.0 0.0 0.00 0.00 0.00 80 1011.3
20260906054830 25 19 0.0 1.6 0.00 0.00 0.00 79 1011.3
20260906053332 25 19 1.6 4.8 0.00 0.00 0.00 78 1011.3
20260906051814 25 19 0.0 3.2 0.00 0.00 0.00 78 1011.3
20260906050318 25 19 0.0 0.0 0.00 0.00 0.00 77 1011.3
20260906044819 25 19 0.0 1.6 0.00 0.00 0.00 77 1011.3
20260906043325 25 19 0.0 0.0 0.00 0.00 0.00 75 1011.3
20260906041829 25 19 1.6 4.8 0.00 0.00 0.00 75 1011.3
20260906040329 25 19 0.0 0.0 0.00 0.00 0.00 75 1011.3
20260906034815 25 19 0.0 3.2 0.00 0.00 0.00 74 1011.3
20260906033337 25 19 0.0 3.2 0.00 0.00 0.00 72 1011.1
20260906031818 26 20 4.8 9.7 0.00 0.00 0.00 69 1010.9
20260906030323 26 134 0.0 0.0 0.00 0.00 0.00 69 1010.7
20260906024824 27 134 0.0 0.0 0.00 0.00 0.00 68 1010.5
20260906023329 27 134 0.0 0.0 0.00 0.00 0.00 67 1010.4
20260906021832 27 134 0.0 0.0 0.00 0.00 0.00 66 1010.1
20260906020314 28 134 0.0 0.0 0.00 0.00 0.00 62 1009.9
20260906014839 28 134 0.0 0.0 0.00 0.00 0.00 61 1009.7
20260906013319 30 134 0.0 0.0 0.00 0.00 0.00 60 1009.6
20260906011827 30 134 0.0 0.0 0.00 0.00 0.00 56 1009.4
20260906010328 31 134 0.0 3.2 0.00 0.00 0.00 55 1009.3
20260906004829 32 134 0.0 3.2 0.00 0.00 0.00 52 1009.4
20260906003316 35 134 3.2 3.2 0.00 0.00 0.00 46 1009.4
20260906001819 36 134 1.6 4.8 0.00 0.00 0.00 40 1009.5
20260906000326 37 134 3.2 8.0 0.00 0.00 0.00 38 1009.5
20260905234825 38 131 3.2 9.7 0.00 0.00 0.00 37 1009.5
20260905233326 38 134 4.8 9.7 0.00 0.00 0.00 36 1009.4
20260905231813 38 120 3.2 9.7 0.00 0.00 0.00 35 1009.2
20260905230354 38 140 6.4 14.5 0.00 0.00 0.00 35 1009.2
20260905224813 40 167 3.2 6.4 0.00 0.00 0.00 35 1009.2
20260905223318 39 61 1.6 8.0 0.00 0.00 0.00 36 1009.3
20260905221822 38 15 6.4 16.1 0.00 0.00 0.00 36 1009.4
20260905220327 38 87 4.8 11.3 0.00 0.00 0.00 36 1009.5
20260905214828 38 54 4.8 9.7 0.00 0.00 0.00 36 1009.6
20260905213329 38 24 4.8 14.5 0.00 0.00 0.00 38 1009.7
20260905211816 37 65 8.0 11.3 0.00 0.00 0.00 40 1009.9
20260905210318 37 82 8.0 14.5 0.00 0.00 0.00 39 1010.2
20260905204823 38 40 8.0 16.1 0.00 0.00 0.00 38 1010.4
20260905203326 37 86 9.7 16.1 0.00 0.00 0.00 41 1010.5
20260905201828 37 24 9.7 16.1 0.00 0.00 0.00 40 1010.7
20260905200314 37 37 8.0 16.1 0.00 0.00 0.00 41 1010.7
20260905194815 37 69 11.3 17.7 0.00 0.00 0.00 40 1011.1
20260905193321 38 26 8.0 17.7 0.00 0.00 0.00 40 1011.2
20260905191846 38 274 8.0 16.1 0.00 0.00 0.00 39 1011.3
20260905190324 38 147 4.8 19.3 0.00 0.00 0.00 40 1011.6
20260905184829 38 144 8.0 16.1 0.00 0.00 0.00 38 1011.9
20260905183350 38 44 6.4 12.9 0.00 0.00 0.00 40 1012.1